This is the latest recevied weather packets stored in our database for station/object KC7WRB. If no packets are shown the sender has not sent any weather packets the latest 10 day(s).
| Time | Temp. | Humidity | Pressure | Rain* | Wind** | Luminosity | Snow |
|---|---|---|---|---|---|---|---|
| 1777575640 | 18.89° C | 20% | 1018.9 hPa | 0 mm | - | 910 W/m² | - |
| 1777575336 | 18.33° C | 21% | 1019.1 hPa | 0 mm | - | 910 W/m² | - |
| 1777575032 | 18.33° C | 20% | 1019.1 hPa | 0 mm | - | 906 W/m² | - |
| 1777574728 | 18.89° C | 19% | 1019.1 hPa | 0 mm | - | 898 W/m² | - |
| 1777574426 | 18.89° C | 21% | 1019.2 hPa | 0 mm | - | 894 W/m² | - |
| 1777574121 | 18.89° C | 22% | 1019.2 hPa | 0 mm | - | 885 W/m² | - |
| 1777573817 | 17.78° C | 23% | 1019 hPa | 0 mm | - | 876 W/m² | - |
| 1777573512 | 18.33° C | 22% | 1019.3 hPa | 0 mm | - | 869 W/m² | - |
| 1777573209 | 17.78° C | 23% | 1019.2 hPa | 0 mm | - | 863 W/m² | - |
| 1777572905 | 18.33° C | 22% | 1019.4 hPa | 0 mm | - | 853 W/m² | - |
| 1777572601 | 17.78° C | 23% | 1019.2 hPa | 0 mm | - | 844 W/m² | - |
| 1777572301 | 17.78° C | 23% | 1019.2 hPa | 0 mm | - | 837 W/m² | - |
| 1777571997 | 17.78° C | 23% | 1019.3 hPa | 0 mm | - | 827 W/m² | - |
| 1777571697 | 17.78° C | 23% | 1019.5 hPa | 0 mm | - | 818 W/m² | - |
| 1777571395 | 17.22° C | 24% | 1019.4 hPa | 0 mm | - | 809 W/m² | - |
| 1777571091 | 17.22° C | 25% | 1019.5 hPa | 0 mm | - | 798 W/m² | - |
| 1777570787 | 17.22° C | 23% | 1019.5 hPa | 0 mm | - | 786 W/m² | - |
| 1777570483 | 17.22° C | 24% | 1019.5 hPa | 0 mm | - | 776 W/m² | - |
| 1777570179 | 16.67° C | 25% | 1019.3 hPa | 0 mm | - | 766 W/m² | - |
| 1777569876 | 16.67° C | 25% | 1019.4 hPa | 0 mm | - | 753 W/m² | - |
| 1777569572 | 16.11° C | 25% | 1019.7 hPa | 0 mm | - | 741 W/m² | - |
| 1777569268 | 16.67° C | 25% | 1019.7 hPa | 0 mm | - | 730 W/m² | - |
| 1777568965 | 16.11° C | 26% | 1019.7 hPa | 0 mm | - | 716 W/m² | - |
| 1777568661 | 16.11° C | 26% | 1019.5 hPa | 0 mm | - | 702 W/m² | - |
| 1777568359 | 16.67° C | 24% | 1019.7 hPa | 0 mm | - | 689 W/m² | - |
* Rain latest hour (hover to see other rain measurements)
** Current wind speed in m/s (hover to see current wind gust speed)